Location: Arroyo de Marzalva
(40.2333°N, 4.2833°W)
Time: 08:36:22
(UTC+00:00)

Daily predictions for brighter satellites

Satellite Brightness Start Highest point End
(mag) Time Altitude Azimuth Time Altitude Azimuth Time Altitude Azimuth
Cosmos 1400 Rocket 4.1 17:15:44 10° NNW 17:19:30 44° W 17:23:10 10° SSW
Meteor 1-31 Rocket 3.2 17:18:23 10° S 17:22:15 71° WSW 17:26:09 10° NNW
SeaSat 1 3.3 17:18:29 10° NE 17:22:52 31° ESE 17:27:13 10° S
Cosmos 1939 Rocket 4.3 17:22:25 10° S 17:26:01 40° W 17:29:40 10° NNW
Cosmos 1340 3.3 17:23:59 10° SSE 17:27:18 33° E 17:30:39 10° NNE
SL-4 R/B 3.4 17:25:17 10° W 17:29:11 31° NNW 17:32:53 10° NE
Landsat 4 4.0 17:26:11 10° S 17:29:53 72° WSW 17:33:37 10° NNW
NOAA 6 4.5 17:28:03 10° SE 17:32:47 38° ENE 17:37:32 10° N
Cosmos 1331 Rocket 4.2 17:28:12 10° S 17:33:19 56° ESE 17:38:30 10° NNE
Cosmos 405 3.2 17:30:39 10° NNW 17:33:56 67° W 17:37:10 10° S
Cosmos 389 Rocket 2.3 17:31:02 10° N 17:34:23 67° E 17:37:43 10° SSE
Cosmos 2237 4.2 17:31:07 10° NNW 17:36:50 70° ENE 17:42:31 10° SSE
OAO 2 Rocket 4.2 17:32:40 10° WSW 17:37:38 46° S 17:42:30 10° ESE
Cosmos 2074 Rocket 4.2 17:34:20 10° S 17:40:37 78° W 17:46:55 10° N
USA 290 2.1 17:38:54 10° NNW 17:42:08 79° ENE 17:45:21 10° SSE
ATLAS 3B R/B 3.0 17:36:50 10° S 17:43:06 48° ESE 17:49:46 10° NE
Cosmos 44 4.1 17:39:39 10° N 17:43:40 28° NE 17:47:50 10° ESE
Cosmos 1315 Rocket 2.8 17:40:02 10° N 17:44:08 80° E 17:48:14 10° SSE
IKONOS-2 4.4 17:39:59 10° NNE 17:44:12 69° ESE 17:48:22 10° S
CZ-2C R/B 3.7 17:40:41 10° N 17:45:41 45° WNW 17:50:35 10° SW
CZ-2D R/B 3.3 17:43:10 10° S 17:46:56 80° W 17:50:44 10° NNW
SL-16 R/B 2.5 17:43:36 10° NNW 17:49:16 73° WSW 17:54:54 10° SSE
SL-08 R/B 3.2 17:47:14 10° NNE 17:51:53 89° WNW 17:56:29 10° SSW
Lacrosse 5 4.1 17:49:50 10° NW 17:52:12 13° NNW 17:54:34 10° NNE
BREEZE-M DEB (TANK) 3.8 17:47:11 10° WNW 17:52:30 24° NNW 17:54:28 14° NE
Cosmos 1833 4.2 17:48:48 10° SSW 17:54:32 70° ESE 18:00:18 10° NNE
DMSP B5D2-2 4.3 17:49:30 10° NNE 17:54:33 48° E 17:59:34 10° S
Cosmos 2219 Rocket 3.0 17:51:59 10° N 17:56:43 27° NE 18:01:26 10° ESE
Okean 3 Rocket 4.4 17:53:58 10° NNE 17:57:41 27° ENE 18:01:23 10° SE
Tiangong -0.3 17:59:05 10° SSW 18:01:33 21° SSE 18:02:49 17° ESE
Cosmos 2154 Rocket 4.3 17:56:49 10° SSW 18:03:02 73° W 18:09:17 10° N
SL-27 R/B 3.3 18:00:43 10° SSE 18:03:28 26° ESE 18:03:55 25° E
SL-24 DEB 4.4 17:59:01 10° SSE 18:03:35 50° E 18:08:12 10° N
CZ-4B R/B 2.5 18:02:33 10° SSE 18:06:07 79° ENE 18:09:52 10° N
Cosmos 1842 Rocket 4.4 18:04:38 10° SSE 18:08:24 28° E 18:09:54 23° ENE
Cosmos 1741 Rocket 4.2 18:03:28 10° NNW 18:08:45 77° WSW 18:14:02 10° SSE
Cosmos 1500 3.7 18:06:38 10° N 18:10:07 35° ENE 18:13:36 10° SE
Cosmos 2221 2.7 18:11:18 10° SSE 18:15:31 50° E 18:19:13 13° NNE
SL-8 Rocket 4.1 18:09:44 10° SSE 18:15:47 53° E 18:21:49 10° NNE
COSMO-SKYMED 1 2.5 18:12:08 10° NNE 18:16:27 64° ESE 18:20:45 10° S
SL-08 RB Rocket 4.0 18:12:50 10° S 18:17:20 67° WSW 18:21:49 10° NNW
Cosmos 2333 4.2 18:15:51 10° NNW 18:21:25 59° ENE 18:26:58 10° SE
Cosmos 1602 3.8 18:17:47 10° N 18:21:33 50° E 18:25:16 10° SSE
Cosmos 2322 Rocket 2.9 18:16:45 10° NNW 18:22:14 56° WSW 18:27:41 10° S
Meteor 1-25 Rocket 4.2 18:16:51 10° N 18:22:20 54° ENE 18:27:44 10° SSE
SWARM A 4.3 18:20:03 10° N 18:23:32 59° E 18:26:59 10° SSE
Cosmos 1302 Rocket 3.9 18:18:47 10° SSW 18:24:00 76° ESE 18:28:25 15° NNE
Cosmos 2366 rocket 4.1 18:19:54 10° SSE 18:25:57 54° E 18:32:05 10° NNE
NOSS 3-1 (C) 3.6 18:24:20 10° S 18:28:52 36° ESE 18:30:01 32° E
ISS -1.4 18:27:27 10° NNW 18:28:40 14° N 18:28:40 14° N
Cosmos 1339 Rocket 4.4 18:23:11 10° N 18:29:21 77° E 18:35:35 10° S
Cosmos 1782 3.0 18:28:17 10° SSE 18:31:59 46° E 18:31:59 46° E
Cosmos 2218 Rocket 4.0 18:27:57 10° S 18:34:11 63° E 18:40:31 10° NNE
BlueWalker 3 4.3 18:32:15 10° NW 18:34:14 13° N 18:34:58 13° N
MINOTAUR 4 R/B 3.8 18:34:26 60° ENE 18:34:50 68° ESE 18:38:17 10° S
CZ-4C R/B 2.5 18:31:09 10° SW 18:35:37 53° NW 18:39:28 18° NNE
NOSS 2-3 (D) 3.2 18:35:23 10° SSW 18:39:10 66° ESE 18:39:39 58° ENE
NOSS 2-3 (C) 3.1 18:35:36 10° SSW 18:39:24 73° ESE 18:40:03 58° ENE
Cosmos 2333 Rocket 2.1 18:34:00 10° NNW 18:39:41 86° ENE 18:45:21 10° SSE
Lacrosse 5 rocket 1.8 18:39:33 10° NW 18:44:02 67° SW 18:46:56 21° SSE
Cosmos 2322 3.7 18:40:59 10° NNW 18:46:38 57° ENE 18:49:13 31° SE
PAYLOAD B 4.1 18:42:57 10° SSE 18:48:29 75° ENE 18:54:06 10° N
Cosmos 1766 Rocket 4.3 18:47:20 10° NNW 18:51:43 54° W 18:56:04 10° S
Cosmos 1812 2.9 18:50:03 10° S 18:53:07 58° S 18:53:07 58° S
Meteor 1-26 Rocket 4.1 18:48:30 10° S 18:54:05 67° E 18:57:02 30° NNE
Cosmos 2360 Rocket 3.4 18:51:37 10° NW 18:56:55 43° WSW 19:02:12 10° S
USA 267 3.3 18:58:24 45° E 19:00:02 56° SE 19:06:26 10° SSW
SeaSat 1 3.9 18:56:22 12° N 19:00:19 34° NW 19:04:44 10° WSW
COSMOS 2428 2.7 18:56:53 10° NNW 19:02:13 57° NE 19:02:13 57° NE
Timation 1 Rocket 4.2 19:03:33 10° SSW 19:09:31 88° WNW 19:11:16 49° NNE
SL-4 R/B 4.3 19:06:56 10° NW 19:08:45 15° NNW 19:08:45 15° NNW
Cosmos 968 Rocket 4.1 19:05:57 10° NNW 19:10:59 56° WSW 19:16:01 10° S
Cosmos 2344 4.5 19:03:09 10° NNW 19:11:34 45° NE 19:13:26 42° ENE
Cosmos 2297 Rocket 4.0 19:07:24 10° SSE 19:08:55 18° SSE 19:08:55 18° SSE
Iridium 4 Rocket 4.4 19:09:20 10° SSW 19:14:46 51° W 19:19:48 10° N
CZ-4B R/B 3.2 19:13:11 10° SSE 19:18:49 86° WSW 19:24:24 10° NNW
OAO 2 Rocket 4.2 19:17:12 10° W 19:21:54 41° SSW 19:21:54 41° SSW
MOS 1-B 4.4 19:17:01 10° S 19:22:47 74° WSW 19:28:34 10° NNW
BREEZE-M DEB (TANK) 3.7 19:04:45 10° SW 19:24:02 78° SSE 19:24:56 67° E
SL-08 R/B 4.4 19:25:10 10° S 19:30:57 75° SSE 19:30:57 75° SSE
USA 234 4.3 19:34:29 31° N 19:34:29 31° N 19:39:02 10° NW
ATLAS 3B R/B 3.8 19:27:48 10° WSW 19:33:57 37° NW 19:37:15 25° N
Lacrosse 5 4.4 19:34:50 10° NNW 19:35:02 10° NNW 19:35:02 10° NNW
Tiangong 1.5 19:35:01 10° WSW 19:35:08 11° WSW 19:35:08 11° WSW
Cosmos 2219 Rocket 3.2 19:35:33 10° NW 19:40:47 42° WSW 19:44:32 18° SSW
Cosmos 2237 Rocket 4.4 19:43:26 10° NNW 19:44:10 14° NNW 19:44:10 14° NNW
